Aérodrome :
LOGIN :

S'inscrire | Disclaimer

   EN    FR    IT 

 










Légende :    VFR   VFR Marginal   IFR   IFR Intensif   IFR Très Intensif
Visi : 
Plafond : 
>= 8 km
>= 3000ft
5 à 8 km
1000 à 3000 ft
1500m à 5 km
500 à 1000 ft
800 à 1500m
200 à 500 ft
< 800m
< 200 ft
Symboles :   Orages  Brouillard  Fortes neiges  Fortes précipitations  Vent > 20 kt
SIGMETs :   Divers  Orages  Givrage  Turbulence  Onde Orograph.  Cendres Volcan.







- Altitude de l'aérodrome : 645 ft
- Code IATA : DLE
- Voir les cartes d'approche


LFGJ - Dole Tavaux

DERNIER METAR :
  • 212200Z AUTO 35004KT CAVOK 14/12 Q1012

METARs EXPIRÉS :
  • 212130Z AUTO VRB02KT CAVOK 14/12 Q1012
  • 212100Z AUTO 32002KT CAVOK 16/14 Q1012
  • 212030Z AUTO 35003KT CAVOK 15/13 Q1012
  • 212000Z AUTO VRB03KT CAVOK 17/13 Q1011
  • 211930Z AUTO 03004KT CAVOK 17/13 Q1011

TAF AMD TAF LFGJ
Valide du 21 à 15h jusqu'au 22 à 00h UTC


211523Z 2115/2124 VRB03KT CAVOK
TEMPO 2115/2122 FEW050CB
PROB40
TEMPO 2115/2122 4000 SHRA
PROB40
TEMPO 2115/2120 TSRA
Pas de NOTAMs connus pour ce terrain.



MET'MAP, la Météo Aéronautique d'un coup d'oeil ! - Copyright ORBIFLY Décembre 2007 - Disclaimer

ORBIFLY MET'MAP TEAM :

Programmation & Développement : Alexandra Zaïnal
Conception & Développement : Baudouin d'Aumeries
Co-Programmation & Développement : Marc-Olivier Méhu
Soutien technique & logistique : Manuel Goepfert

Contact : metmap@orbifly.com




SOURCES & CREDITS :

   NOAA